Location: Montreal
(45.5000°N, 73.5833°W)
Time: 02:54:45
(UTC-04:00)

Vanguard 1 - Visible Passes

Search period start: 21 October 2017 00:00
Search period end: 31 October 2017 00:00
Orbit: 650 x 3834 km, 34.3° (Epoch: 20 October)

Date Brightness Start Highest point End Pass type
(mag) Time Alt. Az. Time Alt. Az. Time Alt. Az.
21 Oct 13.0 01:50:12 43° ESE 01:50:12 43° ESE 02:05:07 10° E visible
21 Oct 12.6 04:02:55 49° SW 04:08:34 59° S 04:31:21 10° ESE visible
21 Oct 13.3 06:15:37 13° W 06:33:37 44° SSW 06:53:47 10° SE visible
21 Oct 13.9 23:57:19 12° E 23:57:19 12° E 23:58:39 10° E visible
22 Oct 12.8 02:10:03 48° SE 02:10:03 48° SE 02:26:40 10° E visible
22 Oct 12.6 04:22:45 44° WSW 04:29:50 57° S 04:52:23 10° ESE visible
22 Oct 13.4 06:35:55 10° W 06:54:30 38° SW 07:13:45 10° SSE visible
23 Oct 13.8 00:17:12 16° E 00:17:12 16° E 00:20:32 10° E visible
23 Oct 12.7 02:29:55 53° SE 02:29:55 53° SE 02:48:08 10° ESE visible
23 Oct 12.7 04:42:38 38° WSW 04:51:03 53° SSW 05:13:14 10° SE visible
24 Oct 13.6 00:37:06 20° E 00:37:06 20° E 00:42:17 10° E visible
24 Oct 12.6 02:49:50 56° SSE 02:49:50 56° SSE 03:09:31 10° ESE visible
24 Oct 12.8 05:02:33 32° WSW 05:12:12 48° SSW 05:33:50 10° SE visible
25 Oct 13.5 00:57:03 24° ESE 00:57:03 24° ESE 01:03:56 10° E visible
25 Oct 12.5 03:09:47 57° S 03:09:47 57° S 03:30:46 10° ESE visible
25 Oct 13.0 05:22:30 27° WSW 05:33:17 43° SSW 05:54:07 10° SE visible
26 Oct 13.4 01:17:02 28° ESE 01:17:02 28° ESE 01:25:30 10° E visible
26 Oct 12.5 03:29:46 54° SSW 03:29:56 54° S 03:51:51 10° ESE visible
26 Oct 13.1 05:42:30 21° WSW 05:54:16 37° SSW 06:14:03 10° SSE visible
27 Oct 13.2 01:37:04 32° ESE 01:37:04 32° ESE 01:46:59 10° ESE visible
27 Oct 12.6 03:49:48 50° SSW 03:51:08 51° SSW 04:12:44 10° SE visible
27 Oct 13.3 06:02:32 16° W 06:15:10 31° SW 06:33:30 10° SSE visible
28 Oct 13.1 01:57:08 35° ESE 01:57:08 35° ESE 02:08:23 10° ESE visible
28 Oct 12.6 04:09:52 44° SW 04:12:17 46° SSW 04:33:20 10° SE visible
28 Oct 13.4 06:22:36 12° W 06:35:59 25° SW 06:52:18 10° S visible
29 Oct 13.0 02:17:14 38° SE 02:17:14 38° SE 02:29:39 10° ESE visible
29 Oct 12.8 04:29:58 38° SW 04:33:23 40° SSW 04:53:37 10° SE visible
29 Oct 13.6 06:44:40 10° W 06:56:44 19° SW 07:10:04 10° S visible
30 Oct 13.0 02:37:22 39° SE 02:37:22 39° SE 02:50:45 10° ESE visible
30 Oct 12.9 04:50:06 32° SW 04:54:27 34° SSW 05:13:29 10° SSE visible
